This is the latest recevied weather packets stored in our database for station/object N6HGA-1. If no packets are shown the sender has not sent any weather packets the latest 10 day(s).
| Time | Temp. | Humidity | Pressure | Rain* | Wind** | Luminosity | Snow |
|---|---|---|---|---|---|---|---|
| 1788533021 | 17.22° C | 63% | - | 0 mm | - | - | - |
| 1788532721 | 17.22° C | 65% | - | 0 mm | - | - | - |
| 1788532420 | 17.22° C | 65% | - | 0 mm | - | - | - |
| 1788532120 | 17.22° C | 65% | - | 0 mm | - | - | - |
| 1788531517 | 16.11° C | 68% | - | 0 mm | - | - | - |
| 1788531217 | 16.11° C | 70% | - | 0 mm | - | - | - |
| 1788530917 | 15.56° C | 71% | - | 0 mm | - | - | - |
| 1788530643 | 15.56° C | 72% | - | 0 mm | - | - | - |
| 1788530316 | 15° C | 72% | - | 0 mm | - | - | - |
| 1788530016 | 15° C | 75% | - | 0 mm | - | - | - |
| 1788529714 | 15° C | 74% | - | 0 mm | - | - | - |
| 1788529413 | 15° C | 75% | - | 0 mm | - | - | - |
| 1788529113 | 15° C | 75% | - | 0 mm | - | - | - |
| 1788528813 | 15° C | 76% | - | 0 mm | - | - | - |
| 1788528512 | 15° C | 75% | - | 0 mm | - | - | - |
| 1788527911 | - | - | - | - | - | - | - |
| 1788527909 | 15° C | 79% | - | 0 mm | - | - | - |
| 1788527609 | 15° C | 77% | - | 0 mm | - | - | - |
| 1788527309 | 15.56° C | 76% | - | 0 mm | - | - | - |
| 1788527007 | 15.56° C | 75% | - | 0 mm | - | - | - |
| 1788526709 | 15.56° C | 74% | - | 0 mm | - | - | - |
| 1788526707 | 15.56° C | 74% | - | 0 mm | - | - | - |
| 1788526105 | 16.11° C | 71% | - | 0 mm | - | - | - |
| 1788525805 | 16.11° C | 70% | - | 0 mm | - | - | - |
| 1788525202 | 16.11° C | 70% | - | 0 mm | - | - | - |
* Rain since midnight (hover to see other rain measurements)
** Current wind speed in m/s (hover to see current wind gust speed)